Regional Weather Roundup
Issued by NWS

Home | Current Version | Previous Version | Text Only | Print | Product List | Glossary On
Versions: 1 2 3 4 5 6 7 8 9 10 11 12 13 14 15 16 17 18 19 20 21 22 23 24 25 26 27 28 29 30 31 32 33 34 35 36 37 38 39 40 41 42 43 44 45 46 47 48 49 50
000
ASUS43 KLMK 060002
RWRKY
KENTUCKY REGIONAL WEATHER ROUNDUP
NATIONAL WEATHER SERVICE LOUISVILLE KY
700 PM EST FRI FEB 05 2016

NOTE "FAIR" INDICATES FEW OR NO CLOUDS BELOW 12,000 FEET
WITH NO SIGNIFICANT WEATHER AND/OR OBSTRUCTIONS TO VISIBILITY.

KYZ001>023-026-027-061>063-070>075-060100-
WESTERN AND SOUTH CENTRAL KENTUCKY

CITY           SKY/WX    TMP DP  RH WIND       PRES   REMARKS
PADUCAH        CLOUDY    44  21  40 CALM      30.37S
HENDERSON      PTCLDY    41  21  45 NW3       30.38S
OWENSBORO      CLOUDY    40  25  55 CALM      30.39R
HOPKINSVILLE   CLOUDY    44  21  39 SW2       30.38R
BOWLING GREEN  CLEAR     42  19  39 S5        30.40R
GLASGOW        NOT AVBL
$$

KYZ024-025-028>034-038-045-046-053-060100-
NORTH CENTRAL KENTUCKY

CITY           SKY/WX    TMP DP  RH WIND       PRES   REMARKS
LOUISVILLE/SDF CLOUDY    42  18  37 SW7       30.37S
LOUISVILLE/LOU CLOUDY    43  19  38 S3        30.38R
FORT KNOX      CLOUDY    37  21  53 SW3       30.36R
$$

KYZ035>037-039>044-047>052-055>060-089>105-060100-
NORTHEAST KENTUCKY

CITY           SKY/WX    TMP DP  RH WIND       PRES   REMARKS
LEXINGTON      CLOUDY    37  18  46 S6        30.38R WCI  32
COVINGTON      MOCLDY    35  19  52 S5        30.35S WCI  31
FRANKFORT      CLOUDY    38  17  42 S6        30.36S WCI  33
$$

KYZ054-064>069-076>088-106>120-060100-
SOUTHEAST KENTUCKY

CITY           SKY/WX    TMP DP  RH WIND       PRES   REMARKS
JACKSON        CLOUDY    37  11  34 CALM      30.38S
LONDON         CLOUDY    36  17  46 CALM      30.38S
SOMERSET       NOT AVBL
MIDDLESBORO    NOT AVBL
MONTICELLO     CLOUDY    31  22  69 N9        30.41S WCI  23
$$




USA.gov is the U.S. government's official web portal to all federal, state and local government web resources and services.